[[{"header":{"parameterUnit":"m.s-1","parameterCategory":1,"la1":30.2991,"la2":30.254,"lo1":-89.0895,"lo2":-89.0444,"dy":0.0017,"dx":0.0017,"nx":28,"ny":28,"refTime":"2025-08-14T03:00:00:Z","depth":0,"parameterNumber":2,"parameterNumberName":"U-component_of_WINDS"},"data":[0,0,0,0,0,0,0,0,0,0,0,0,0,0,0,0,0,0,0,0,0,0,0,0,0,0,0,0,0,0,0,0,0,0,0,0,0,0,0,0,0,0,0,0,0,0,0,0,0,0,0,0,0,0,0,0,0,0,4.6292,4.6293,0,4.643,4.6431,4.6433,4.6356,4.6352,4.6349,4.6345,4.6488,4.6495,4.6503,0,0,0,0,0,0,0,0,0,0,0,0,0,4.5962,4.5969,4.6292,4.6293,4.6295,4.6429,4.6431,4.6433,4.6357,4.6352,4.6348,4.6343,4.6486,4.6494,4.6503,0,0,0,0,0,0,0,0,0,0,0,0,0,4.6103,4.5971,4.6291,4.6273,4.6273,4.6429,4.6431,4.6434,4.6358,4.6352,4.6346,4.6341,4.6483,4.6494,4.6505,4.6687,0,0,4.6538,4.6543,0,0,0,0,0,0,0,0,4.6095,4.6116,4.6274,4.6275,4.6275,4.637,4.6368,4.6519,4.6359,4.6326,4.6345,4.6338,4.6454,4.6467,4.6505,4.6694,4.67,4.6539,4.6546,4.6551,4.6554,0,0,0,0,0,0,0,4.6086,4.6109,4.6346,4.6276,4.6277,4.6258,4.6272,4.6396,4.642,4.6328,4.6323,4.634,4.6453,4.6495,4.6508,4.6702,4.6539,4.6549,4.6556,4.656,4.7044,4.705,0,0,0,0,0,0,4.6077,4.6102,4.6342,4.635,4.6169,4.6269,4.6284,4.6345,4.6418,4.6424,4.6345,4.6336,4.6479,4.6495,4.6513,4.6728,4.6551,4.6561,4.6567,4.7038,4.7046,4.7052,0,0,0,0,0,0,4.607,4.6099,4.6336,4.6225,4.6253,4.628,4.635,4.6351,4.6393,4.6431,4.6435,4.6383,4.6475,4.6497,4.6643,4.6732,4.6566,4.6576,4.7031,4.704,4.7049,4.7163,0,0,0,0,0,0,4.6061,4.6097,4.6167,4.6227,4.626,4.6465,4.6355,4.6358,4.6412,4.6401,4.6468,4.6474,4.6472,4.6627,4.6654,4.6744,4.6585,4.7023,4.7035,4.7046,4.7151,4.7175,4.7195,0,0,0,0,0,4.605,4.6194,4.6171,4.62,4.6347,4.647,4.6489,4.6483,4.6419,4.6489,4.6513,4.6472,4.6719,4.6643,4.6673,4.6767,4.7017,4.7032,4.7045,4.7141,4.717,4.7195,0,0,0,0,0,0,4.6145,4.6202,4.6176,4.6345,4.6403,4.6457,4.6545,4.6515,4.6593,4.658,4.657,4.6586,4.6738,4.6768,4.6682,4.6947,4.6858,4.6879,4.6921,4.6949,4.697,4.6958,4.6594,0,0,0,0,0,4.6185,4.628,4.6325,4.6469,4.65,4.6518,4.6571,4.6562,4.6622,4.6646,4.6682,4.6742,4.6833,4.6893,4.6979,4.7156,4.7168,4.7236,4.7258,4.7276,4.7293,4.7386,4.7415,4.7099,4.7098,4.7098,0,0,4.627,4.6313,4.6374,4.649,4.6534,4.6631,4.6539,4.6647,4.6719,4.6663,4.6802,4.683,4.6897,4.7059,4.7132,4.7088,4.7383,4.7294,4.7308,4.7315,4.7403,4.7433,4.746,4.7108,4.7106,4.7105,0,0,4.6473,4.6517,4.664,4.6686,4.6753,4.6764,4.6794,4.6853,4.6869,4.7008,4.6967,4.7054,4.7211,4.7259,4.7305,4.7526,4.7489,4.7555,4.7668,4.7759,4.7784,4.7806,4.7882,4.7909,4.7572,4.7573,4.7573,0,4.657,4.6715,4.6707,4.6818,4.6869,4.6822,4.6946,4.6992,4.7085,4.7121,4.7071,4.7266,4.7309,4.7479,4.7533,4.7572,4.7604,4.7545,4.7781,4.7803,4.7823,4.7895,4.7924,4.758,4.7579,4.7578,4.7578,0,4.6829,4.6931,4.7022,4.7111,4.7173,4.7291,4.73,4.7364,4.735,4.7365,4.7507,4.7556,4.765,4.769,4.7678,4.7859,4.783,4.7782,4.7691,4.7861,4.7928,4.7956,4.759,4.7587,4.7585,4.7584,0,0,4.7094,4.7177,4.721,4.7249,4.732,4.7398,4.7513,4.7604,4.7658,4.7724,4.7818,4.7953,4.7907,4.7959,4.7952,4.8032,4.82,4.7973,4.7975,4.8011,4.8399,4.8432,4.8464,4.8178,4.8183,4.8187,4.8392,0,4.7299,4.7498,4.7494,4.7679,4.7771,4.7728,4.7828,4.7882,4.7901,4.7982,4.8002,4.8096,4.8031,4.8061,4.8139,4.8163,4.8277,4.8149,4.8264,4.8268,4.8244,4.85,4.8536,4.8727,4.8419,4.8423,4.8427,0,4.7564,4.7637,4.7831,4.7886,4.7925,4.8014,4.8096,4.8175,4.8235,4.8243,4.83,4.828,4.8396,4.8305,4.8464,4.8376,4.8423,4.8443,4.845,4.8457,4.8355,4.8511,4.8788,4.8815,4.8469,4.8465,4.8462,0,4.7733,4.7881,4.8014,4.805,4.8119,4.8182,4.8214,4.8269,4.8323,4.8396,4.843,4.8516,4.8562,4.8628,4.8632,4.8566,4.8791,4.8701,4.8798,4.8798,4.8845,4.8841,4.9129,4.8882,4.8881,4.8881,4.888,0,4.796,4.8079,4.8091,4.8173,4.8305,4.83,4.8431,4.8457,4.8506,4.8592,4.8562,4.8643,4.8644,4.8727,4.8732,4.886,4.8882,4.889,4.8889,4.8891,4.8889,4.8919,4.8904,4.8888,4.8887,4.8885,4.8884,0,4.817,4.8183,4.8325,4.8379,4.8395,4.849,4.8536,4.8613,4.8629,4.8738,4.8764,4.8788,4.8884,4.8895,4.9008,4.901,4.9164,4.9151,4.9143,4.914,4.9235,4.9224,4.9549,4.959,4.932,4.9322,4.9324,0,4.8312,4.8402,4.8465,4.852,4.8555,4.8645,4.8699,4.8698,4.8757,4.8832,4.89,4.8993,4.9067,4.9223,4.925,4.9336,4.9322,4.943,4.9335,4.9333,4.9319,4.9312,4.932,4.9447,4.945,4.9453,4.9455,0,4.8562,4.8563,4.8643,4.8725,4.8791,4.8856,4.8917,4.8964,4.897,4.9037,4.9134,4.9191,4.9305,4.9397,4.9481,4.9514,4.9485,4.9485,4.9511,4.9512,4.9502,4.9505,4.9189,4.9477,4.9475,4.9473,4.9472,4.9471,4.8739,4.8816,4.8872,4.8961,4.9007,4.9064,4.9139,4.9164,4.9245,4.9336,4.9331,4.9438,4.9495,4.9605,4.9644,4.9727,4.9691,4.973,4.9739,4.9748,4.9755,4.9492,4.9743,4.9742,4.9741,4.9741,4.9741,0,4.8983,4.9017,4.91,4.9185,4.9255,4.9223,4.9288,4.9348,4.9442,4.9498,4.9571,4.9682,4.9771,4.9806,4.9892,4.9952,4.9941,4.9975,4.9968,4.9975,4.9785,4.9751,4.9982,4.9982,4.9982,4.9982,4.9982,4.9982,4.9119,4.9246,4.9255,4.9405,4.9438,4.9541,4.958,4.9633,4.9677,4.9801,4.9875,4.9897,4.9944,5.0034,5.0113,5.0121,5.0153,5.0192,5.0194,5.0014,4.9989,4.9966,4.9934,5.02,5.02,5.0377,5.0379,5.038]},{"header":{"parameterUnit":"m.s-1","parameterCategory":1,"la1":30.2991,"la2":30.254,"lo1":-89.0895,"lo2":-89.0444,"dy":0.0017,"dx":0.0017,"nx":28,"ny":28,"refTime":"2025-08-14T03:00:00:Z","depth":0,"parameterNumber":3,"parameterNumberName":"V-component_of_WINDS"},"data":[0,0,0,0,0,0,0,0,0,0,0,0,0,0,0,0,0,0,0,0,0,0,0,0,0,0,0,0,0,0,0,0,0,0,0,0,0,0,0,0,0,0,0,0,0,0,0,0,0,0,0,0,0,0,0,0,0,0,3.3619,3.362,0,3.3658,3.3659,3.3659,3.3588,3.3585,3.3583,3.3581,3.362,3.3623,3.3627,0,0,0,0,0,0,0,0,0,0,0,0,0,3.3481,3.3484,3.3619,3.362,3.362,3.3658,3.3659,3.3659,3.3588,3.3585,3.3582,3.358,3.3619,3.3623,3.3627,0,0,0,0,0,0,0,0,0,0,0,0,0,3.3533,3.3485,3.3619,3.3589,3.3587,3.3658,3.3659,3.3659,3.3589,3.3585,3.3582,3.3578,3.3618,3.3623,3.3627,3.3729,0,0,3.3642,3.3645,0,0,0,0,0,0,0,0,3.353,3.3538,3.3593,3.3591,3.3589,3.3614,3.3624,3.3683,3.359,3.3588,3.3581,3.3577,3.3621,3.3626,3.3641,3.3731,3.3733,3.3643,3.3646,3.3648,3.3649,0,0,0,0,0,0,0,3.3526,3.3536,3.3634,3.3594,3.3591,3.3573,3.3577,3.3635,3.3624,3.3588,3.3583,3.3589,3.3619,3.3636,3.3641,3.3733,3.3643,3.3647,3.365,3.3652,3.3907,3.3911,0,0,0,0,0,0,3.3527,3.3533,3.3633,3.3636,3.355,3.3579,3.3583,3.361,3.3623,3.3622,3.3592,3.3585,3.363,3.3635,3.3642,3.3761,3.3648,3.3653,3.3655,3.3904,3.3908,3.3912,0,0,0,0,0,0,3.3524,3.3536,3.3632,3.3583,3.3594,3.3585,3.3616,3.3613,3.3629,3.3626,3.3624,3.3611,3.3627,3.3635,3.3708,3.3761,3.3655,3.3659,3.3899,3.3905,3.391,3.4001,0,0,0,0,0,0,3.352,3.3536,3.3575,3.3585,3.3597,3.3697,3.362,3.3616,3.3638,3.363,3.3644,3.3642,3.3625,3.3701,3.3713,3.3766,3.3663,3.3894,3.3902,3.3909,3.3993,3.4009,3.4022,0,0,0,0,0,3.3516,3.3599,3.3577,3.359,3.3646,3.3701,3.3708,3.3686,3.3643,3.3681,3.3679,3.3642,3.3754,3.3709,3.3722,3.3778,3.3891,3.39,3.3908,3.3986,3.4006,3.4022,0,0,0,0,0,0,3.3596,3.36,3.3576,3.3665,3.3683,3.3689,3.3737,3.3707,3.3738,3.3729,3.3701,3.3704,3.3782,3.3787,3.3737,3.3876,3.3815,3.3827,3.387,3.3888,3.3903,3.39,3.3667,0,0,0,0,0,3.3624,3.3669,3.3669,3.3748,3.3758,3.3746,3.3769,3.3751,3.3769,3.3776,3.3779,3.3797,3.3836,3.3863,3.3899,3.3993,3.3994,3.4038,3.4053,3.4065,3.4075,3.4124,3.4143,3.3941,3.3941,3.3941,0,0,3.3682,3.369,3.372,3.3764,3.3776,3.3822,3.3753,3.3805,3.3839,3.3784,3.3852,3.3855,3.3873,3.3957,3.3994,3.3964,3.4131,3.4076,3.4085,3.4089,3.4135,3.4154,3.4171,3.3947,3.3946,3.3945,0,0,3.3811,3.3823,3.3888,3.3902,3.392,3.3912,3.3928,3.3938,3.3938,3.4006,3.3965,3.4004,3.4073,3.4087,3.4103,3.4238,3.4204,3.425,3.4327,3.4375,3.4391,3.4405,3.4452,3.4469,3.426,3.4261,3.4261,0,3.3881,3.395,3.3926,3.3981,3.4001,3.3953,3.4018,3.4032,3.4062,3.4077,3.4042,3.4126,3.4135,3.4221,3.4254,3.4269,3.4285,3.4248,3.4391,3.4405,3.4417,3.4461,3.4479,3.4266,3.4265,3.4265,3.4264,0,3.4034,3.4083,3.4133,3.4163,3.4189,3.425,3.4233,3.4262,3.4242,3.4237,3.4306,3.4315,3.4351,3.437,3.4351,3.4453,3.4433,3.4396,3.4334,3.4442,3.4483,3.45,3.4274,3.4272,3.427,3.4269,0,0,3.4215,3.4231,3.425,3.4262,3.4279,3.4316,3.4373,3.4409,3.4434,3.4456,3.4502,3.4561,3.4526,3.4544,3.4526,3.4568,3.4672,3.4524,3.4524,3.4551,3.4784,3.4812,3.4832,3.465,3.4653,3.4656,3.4782,0,3.4343,3.4443,3.4422,3.4519,3.4563,3.4517,3.4567,3.4583,3.4579,3.4615,3.4611,3.4653,3.4603,3.4614,3.4654,3.4651,3.4719,3.4642,3.4693,3.4695,3.4689,3.4854,3.4884,3.5002,3.4798,3.4801,3.4803,0,3.4506,3.4533,3.4635,3.4644,3.4662,3.4707,3.4737,3.4773,3.4789,3.4783,3.4804,3.4777,3.4833,3.4771,3.4847,3.4796,3.4815,3.4817,3.4821,3.4824,3.4755,3.486,3.504,3.5057,3.4828,3.4826,3.4824,0,3.4626,3.4689,3.4758,3.477,3.4783,3.4815,3.4822,3.4835,3.4857,3.4884,3.4897,3.493,3.4948,3.4974,3.4956,3.4912,3.5035,3.4971,3.5031,3.5031,3.5058,3.5057,3.5242,3.5073,3.5072,3.5072,3.5072,0,3.477,3.4834,3.4812,3.4854,3.4924,3.4899,3.4968,3.497,3.4981,3.5022,3.4985,3.5024,3.4999,3.5036,3.5022,3.5087,3.5096,3.5092,3.5087,3.5095,3.5095,3.5107,3.5098,3.5077,3.5076,3.5075,3.5074,0,3.4916,3.4904,3.4976,3.4982,3.4985,3.5036,3.504,3.5079,3.5073,3.5125,3.5136,3.5126,3.5167,3.5152,3.5196,3.5187,3.5269,3.5255,3.5264,3.526,3.532,3.5314,3.5518,3.5543,3.5359,3.5361,3.5362,0,3.5009,3.5057,3.5068,3.5093,3.5102,3.5143,3.5165,3.5143,3.5167,3.5189,3.5225,3.5263,3.5292,3.536,3.5357,3.539,3.5375,3.5444,3.538,3.5385,3.5375,3.5372,3.5376,3.5457,3.5459,3.5461,3.5462,0,3.5174,3.5165,3.5199,3.5231,3.5259,3.5283,3.5304,3.5326,3.5305,3.5334,3.5376,3.5399,3.5444,3.5482,3.5511,3.5517,3.5486,3.5483,3.5498,3.5506,3.5509,3.5507,3.5298,3.5478,3.5476,3.5475,3.5474,3.5474,3.5295,3.5335,3.5349,3.5388,3.5401,3.5421,3.5457,3.5455,3.549,3.5525,3.5509,3.5558,3.5571,3.5608,3.5618,3.5655,3.5628,3.565,3.5656,3.5662,3.5669,3.5504,3.566,3.566,3.5659,3.5659,3.5659,0,3.5457,3.5463,3.55,3.553,3.556,3.5529,3.555,3.5577,3.562,3.5636,3.5665,3.5713,3.5749,3.5748,3.5781,3.5811,3.5798,3.5821,3.5818,3.5819,3.5692,3.5675,3.5831,3.5831,3.5831,3.5831,3.5831,3.5831,3.5545,3.561,3.5604,3.5675,3.5681,3.5728,3.5743,3.576,3.5773,3.5828,3.5858,3.5857,3.5866,3.5899,3.5931,3.593,3.5943,3.5972,3.5965,3.5846,3.5828,3.5812,3.5796,3.5975,3.5975,3.6089,3.609,3.6091]}]]